Location: Boda
(47.1872°N, 9.5454°E)
Time: 17:49:42
(UTC+00:00)

Cosmos 1300 - Pass Details

Date: 14 May 2021
Orbit: 510 x 512 km, 82.5° (Epoch: 16 June)

Event Time Altitude Azimuth Distance (km) Brightness Sun altitude
Rises 02:31:19 0° 343° (NNW) 2,638 6.7 -11.2°
Reaches altitude 10° 02:33:33 10° 335° (NNW) 1,746 5.6 -10.9°
Maximum altitude 02:37:06 37° 268° (W) 805 3.3 -10.5°
Enters shadow 02:40:26 11° 200° (SSW) 1,660 4.7 -10.0°
